Rogers City, MI

1:39 AM EST on February 21, 2017 (GMT -0500)
Presque Isle County

Weather History for KPZQ - April, 2013

Change the Weather History Date:

Sunday, April 28, 2013

  Actual Average (KAPN) Record (KAPN)
Temperature  
Mean Temperature 52 °F -  
Max Temperature 68 °F 57 °F 85 °F (1974)
Min Temperature 35 °F 35 °F 20 °F (1996)
Degree Days  
Heating Degree Days 14    
Growing Degree Days 2 (Base 50)    
Moisture  
Dew Point 41 °F    
Average Humidity 65    
Maximum Humidity 93    
Minimum Humidity 38    
Precipitation  
Precipitation 0.00 in - - ()
Sea Level Pressure  
Sea Level Pressure 29.98 in    
Wind  
Wind Speed 5 mph (SE)    
Max Wind Speed 18 mph    
Max Gust Speed 26 mph    
Visibility 10 miles    
Events      
Averages and records for this station are not official NWS values.
T = Trace of Precipitation, MM = Missing Value Source: NWS Daily Summary

Daily Weather History Graph

Daily Weather History Graph

Search for Another Location

Airport or City:

Trip Planner

Search our weather history database for the weather conditions in past years. The results will help you decide how hot, cold, wet, or windy it might be!

Date:

Astronomy

Apr. 28, 2013 Rise Set
Actual Time 6:27 AM EDT 8:38 PM EDT
Civil Twilight 5:55 AM EDT 9:10 PM EDT
Nautical Twilight 5:15 AM EDT 9:50 PM EDT
Astronomical Twilight 4:31 AM EDT 10:35 PM EDT
Moon No Moon Rise 8:37 AM EDT (4/28)
Length of Visible Light 15h 15m
Length of Day
14h 10m
Waning Gibbous, 89% of the Moon is Illuminated
Apr 28
Waning Gibbous
May 2
Last Quarter
May 9
New
May 18
First Quarter
May 25
Full

Hourly Weather History & Observations

Time (EDT) Temp. Windchill Dew Point Humidity Pressure Visibility Wind Dir Wind Speed Gust Speed Precip Events Conditions
12:15 AM 39.7 °F - 37.0 °F 90% 30.10 in 10.0 mi Calm Calm - N/A   Clear
12:34 AM 38.1 °F - 35.6 °F 91% 30.10 in 10.0 mi Calm Calm - N/A   Clear
12:55 AM 41.4 °F 38.4 °F 39.4 °F 93% 30.10 in 10.0 mi SE 4.6 mph - N/A   Clear
1:15 AM 39.9 °F - 37.4 °F 91% 30.10 in 7.0 mi Calm Calm - N/A   Clear
1:35 AM 39.2 °F 37.0 °F 36.7 °F 91% 30.09 in 7.0 mi WSW 3.5 mph - N/A   Clear
1:55 AM 36.7 °F - 34.5 °F 92% 30.09 in 7.0 mi Calm Calm - N/A   Clear
2:15 AM 38.1 °F - 36.3 °F 93% 30.08 in 7.0 mi Calm Calm - N/A   Clear
2:35 AM 36.3 °F - 34.3 °F 93% 30.08 in 7.0 mi Calm Calm - N/A   Clear
2:55 AM 36.5 °F - 34.7 °F 93% 30.07 in 5.0 mi Calm Calm - N/A   Clear
3:15 AM 35.8 °F 33.0 °F 34.0 °F 93% 30.06 in 5.0 mi South 3.5 mph - N/A   Clear
3:35 AM 37.6 °F 35.1 °F 35.8 °F 93% 30.06 in 10.0 mi SSW 3.5 mph - N/A   Clear
3:55 AM 44.1 °F 40.8 °F 39.4 °F 84% 30.05 in 10.0 mi SSW 5.8 mph - N/A   Clear
4:15 AM 47.3 °F - 39.2 °F 73% 30.05 in 10.0 mi SSW 4.6 mph - N/A   Clear
4:35 AM 45.3 °F 42.3 °F 37.8 °F 75% 30.05 in 10.0 mi SSW 5.8 mph - N/A   Clear
4:55 AM 48.2 °F - 38.3 °F 69% 30.05 in 10.0 mi SSW 5.8 mph - N/A   Clear
5:15 AM 48.2 °F - 38.3 °F 69% 30.04 in 10.0 mi SSW 5.8 mph - N/A   Clear
5:35 AM 47.5 °F - 37.8 °F 69% 30.04 in 10.0 mi SSW 5.8 mph - N/A   Clear
5:55 AM 47.8 °F - 37.8 °F 68% 30.04 in 10.0 mi South 5.8 mph - N/A   Clear
6:15 AM 48.4 °F - 37.9 °F 67% 30.04 in 10.0 mi South 6.9 mph - N/A   Clear
6:35 AM 48.4 °F - 37.6 °F 66% 30.05 in 10.0 mi South 6.9 mph - N/A   Clear
6:55 AM 47.8 °F - 37.8 °F 68% 30.05 in 10.0 mi South 8.1 mph - N/A   Clear
7:15 AM 48.4 °F - 37.9 °F 67% 30.05 in 10.0 mi South 6.9 mph - N/A   Clear
7:35 AM 50.4 °F - 37.8 °F 62% 30.05 in 10.0 mi SSW 5.8 mph - N/A   Clear
7:55 AM 51.4 °F - 37.9 °F 60% 30.05 in 10.0 mi SSW 5.8 mph - N/A   Clear
8:15 AM 53.2 °F - 38.3 °F 57% 30.04 in 10.0 mi Calm Calm - N/A   Clear
8:35 AM 54.9 °F - 38.3 °F 54% 30.04 in 10.0 mi South 3.5 mph - N/A   Clear
9:15 AM 59.9 °F - 37.4 °F 43% 30.03 in 10.0 mi South 4.6 mph - N/A   Clear
9:35 AM 60.6 °F - 39.0 °F 45% 30.03 in 10.0 mi ESE 3.5 mph - N/A   Mostly Cloudy
9:55 AM 60.8 °F - 38.3 °F 43% 30.03 in 10.0 mi SE 4.6 mph - N/A   Overcast
10:15 AM 62.1 °F - 35.8 °F 38% 30.02 in 10.0 mi SE 9.2 mph - N/A   Overcast
10:35 AM 60.8 °F - 34.7 °F 38% 30.02 in 10.0 mi SSE 6.9 mph - N/A   Overcast
10:55 AM 60.6 °F - 36.0 °F 40% 30.01 in 10.0 mi SE 4.6 mph - N/A   Overcast
11:15 AM 56.7 °F - 41.5 °F 57% 30.01 in 10.0 mi ENE 3.5 mph - N/A   Overcast
11:35 AM 57.2 °F - 41.2 °F 55% 30.00 in 10.0 mi ENE 3.5 mph - N/A   Overcast
11:54 AM 55.2 °F - 39.9 °F 56% 30.00 in 10.0 mi ENE 4.6 mph - N/A   Overcast
12:15 PM 56.1 °F - 39.7 °F 54% 29.99 in 10.0 mi ENE 4.6 mph - N/A   Overcast
12:35 PM 52.7 °F - 39.4 °F 61% 29.98 in 10.0 mi ENE 3.5 mph - N/A   Overcast
12:55 PM 53.4 °F - 40.3 °F 61% 29.98 in 10.0 mi North 3.5 mph - N/A   Overcast
1:15 PM 54.1 °F - 41.0 °F 61% 29.97 in 10.0 mi Calm Calm - N/A   Overcast
1:35 PM 54.7 °F - 41.5 °F 61% 29.96 in 10.0 mi North 3.5 mph - N/A   Overcast
1:55 PM 55.8 °F - 41.7 °F 59% 29.95 in 10.0 mi North 3.5 mph - N/A   Overcast
2:15 PM 55.2 °F - 40.8 °F 58% 29.94 in 10.0 mi NNE 5.8 mph - N/A   Mostly Cloudy
2:35 PM 51.8 °F - 40.3 °F 65% 29.93 in 10.0 mi NNE 5.8 mph - N/A   Mostly Cloudy
2:55 PM 54.5 °F - 41.4 °F 61% 29.93 in 10.0 mi North 6.9 mph - N/A   Mostly Cloudy
3:15 PM 56.3 °F - 42.6 °F 60% 29.92 in 10.0 mi North 4.6 mph - N/A   Scattered Clouds
3:35 PM 56.3 °F - 41.7 °F 58% 29.91 in 10.0 mi Calm Calm - N/A   Scattered Clouds
3:55 PM 59.4 °F - 42.6 °F 54% 29.90 in 10.0 mi NNE 4.6 mph - N/A   Clear
4:15 PM 64.6 °F - 43.5 °F 46% 29.90 in 10.0 mi East 6.9 mph - N/A   Clear
4:35 PM 65.5 °F - 43.7 °F 45% 29.89 in 10.0 mi East 8.1 mph - N/A   Clear
4:55 PM 68.7 °F - 44.8 °F 42% 29.88 in 10.0 mi SE 17.3 mph 24.2 mph N/A   Clear
5:15 PM 68.0 °F - 45.1 °F 44% 29.88 in 10.0 mi SE 18.4 mph 26.5 mph N/A   Clear
5:35 PM 67.1 °F - 45.0 °F 45% 29.89 in 10.0 mi SE 15.0 mph 25.3 mph N/A   Clear
5:55 PM 66.0 °F - 43.7 °F 44% 29.89 in 10.0 mi SE 11.5 mph 18.4 mph N/A   Clear
6:15 PM 65.7 °F - 43.7 °F 45% 29.88 in 10.0 mi SE 15.0 mph - N/A   Clear
6:35 PM 64.8 °F - 43.7 °F 46% 29.88 in 10.0 mi SE 15.0 mph 24.2 mph N/A   Clear
6:55 PM 64.4 °F - 43.9 °F 47% 29.88 in 10.0 mi SE 15.0 mph 24.2 mph N/A   Scattered Clouds
7:14 PM 64.2 °F - 44.2 °F 48% 29.88 in 10.0 mi SE 13.8 mph 24.2 mph N/A   Overcast
7:35 PM 63.0 °F - 44.6 °F 51% 29.88 in 10.0 mi SE 16.1 mph - N/A   Overcast
7:55 PM 62.6 °F - 45.1 °F 53% 29.88 in 10.0 mi SSE 9.2 mph - N/A   Overcast
8:15 PM 61.3 °F - 45.1 °F 55% 29.88 in 10.0 mi SSE 9.2 mph - N/A   Overcast
8:35 PM 59.5 °F - 45.7 °F 60% 29.89 in 10.0 mi SSE 11.5 mph - N/A   Scattered Clouds
8:55 PM 58.1 °F - 45.9 °F 64% 29.89 in 10.0 mi SE 9.2 mph - N/A   Clear
9:15 PM 57.2 °F - 46.0 °F 66% 29.89 in 10.0 mi SE 9.2 mph - N/A   Clear
9:35 PM 55.8 °F - 46.4 °F 71% 29.89 in 10.0 mi SSE 9.2 mph - N/A   Clear
9:55 PM 54.0 °F - 47.3 °F 78% 29.90 in 10.0 mi SE 10.4 mph 16.1 mph N/A   Clear
10:15 PM 52.9 °F - 47.5 °F 82% 29.90 in 10.0 mi SSE 11.5 mph 17.3 mph N/A   Clear
10:35 PM 53.1 °F - 48.2 °F 84% 29.89 in 10.0 mi SSE 10.4 mph 17.3 mph N/A   Scattered Clouds
10:54 PM 53.6 °F - 48.4 °F 82% 29.89 in 10.0 mi SSE 10.4 mph 17.3 mph N/A   Overcast
11:15 PM 54.0 °F - 48.6 °F 82% 29.88 in 10.0 mi SSE 13.8 mph 19.6 mph N/A   Overcast
11:35 PM 53.6 °F - 48.4 °F 82% 29.88 in 10.0 mi SSE 10.4 mph - N/A   Overcast
11:55 PM 53.6 °F - 48.6 °F 83% 29.87 in 10.0 mi SSE 13.8 mph 19.6 mph N/A   Overcast